Regional Weather Roundup
Issued by NWS

Home | Current Version | Previous Version | Text Only | Print | Product List | Glossary On
Versions: 1 2 3 4 5 6 7 8 9 10 11 12 13 14 15 16 17 18 19 20 21 22 23 24 25 26 27 28 29 30 31 32 33 34 35 36 37 38 39 40 41 42 43 44 45 46 47 48 49 50
000
ASUS43 KDTX 020110
RWRMI
MICHIGAN HOURLY REGIONAL WEATHER ROUNDUP
NATIONAL WEATHER SERVICE DETROIT/PONTIAC MI
900 PM EDT SAT AUG 01 2015

NOTE: "FAIR" INDICATES FEW OR NO CLOUDS BELOW 12,000 FEET WITH NO
SIGNIFICANT WEATHER AND/OR OBSTRUCTION TO VISIBILITY.

MIZ047>049-052>055-059>063-066>070-074>076-081>083-020200-
SOUTHEAST LOWER MICHIGAN

CITY           SKY/WX    TMP DP  RH WIND       PRES   REMARKS
ADRIAN         CLEAR     73  54  51 W6        29.92R
ALMA           CLEAR     71  49  45 CALM      29.88R
ANN ARBOR      CLEAR     71  54  54 W7        29.89R
BAD AXE        CLEAR     69  57  67 SW5       29.84R
CARO           CLEAR     73  51  46 W7        29.85R
DETROIT CITY   CLEAR     79  46  31 W12G21    29.87R
DETROIT        PTCLDY    77  51  40 W9        29.88R
FLINT          CLEAR     73  51  46 W7        29.87R
GROSSE ILE     CLEAR     75  50  41 W6        29.87R
HILLSDALE      MOCLDY    73  55  53 W5        29.93S
HOWELL         CLEAR     72  49  44 W5        29.89R

CITY           SKY/WX    TMP DP  RH WIND       PRES   REMARKS
JACKSON        CLEAR     72  54  53 W7        29.91R
LAMBERTVILLE   CLEAR     76  55  49 W3        29.91R
LANSING        CLEAR     73  51  46 W6        29.90R
LAPEER         FAIR      74  50  42 W8        29.87R
MASON          CLEAR     71  51  49 W6        29.90S
MONROE         CLEAR     73  56  56 W7        29.88S
MT. CLEMENS    CLEAR     77  45  31 W8        29.85R
PONTIAC        CLEAR     73  48  41 W9        29.88R
PORT HOPE        N/A     70  59  68 SW3       29.81R
PORT HURON     CLEAR     64  61  88 CALM      29.86R
TRI CITIES     CLEAR     74  51  44 W8        29.86R
MIDLAND        FAIR      74  50  43 W6        29.85R
TROY           CLEAR     78  45  30 W7        29.89R
SAGINAW HB     CLEAR     75  50  41 W8        29.85R
$$
MIZ043>046-050>051-056>058-064>065-071>073-077>080-020200-
SOUTHWEST LOWER MICHIGAN

CITY           SKY/WX    TMP DP  RH WIND       PRES   REMARKS
BATTLE CREEK   CLEAR     72  57  59 SW6       29.91F
BENTON HARBOR  PTCLDY    73  60  63 CALM      29.89S
BIG RAPIDS     CLEAR     70  50  48 W3        29.87S
COLDWATER      MOCLDY    71  57  61 CALM      29.92S
FREMONT        FAIR      71  52  51 SW3       29.87F
HOLLAND        PTCLDY    71  58  63 S3        29.90S
GRAND RAPIDS   PTCLDY    76  51  41 W7        29.89F
IONIA          FAIR      74  51  44 W5        29.88F
KALAMAZOO      PTCLDY    73  57  57 SW3       29.91S
LUDINGTON      CLEAR     71  59  66 SW5       29.87S
MARSHALL       CLOUDY    73  57  56 SW5       29.91S
MOUNT PLEASANT CLEAR     74  50  43 CALM      29.86S
MUSKEGON       PTCLDY    72  60  66 SW6       29.88F
SOUTH HAVEN    MOCLDY    72  61  69 CALM      29.90S
$$
MIZ016>042-020200-
NORTHERN LOWER MICHIGAN

CITY           SKY/WX    TMP DP  RH WIND       PRES   REMARKS
ALPENA         CLEAR     70  56  61 CALM      29.82S
BEAVER ISLAND  PTCLDY    69  59  70 SW12G17   29.80S
BELLAIRE       CLEAR     73  53  49 CALM      29.82F
CADILLAC       CLEAR     70  52  53 SW3       29.87S
CHARLEVOIX     CLEAR     71  55  55 SW7       29.84S
FRANKFORT      CLEAR     70  62  74 SW3       29.84S
GAYLORD        CLEAR     70  52  52 W6        29.85S
GRAYLING       CLEAR     69  50  51 CALM      29.86S
HARBOR SPRINGS CLEAR     71  59  66 SW5       29.81S
HOUGHTON LAKE  CLEAR     72  51  47 W9        29.86S
MANISTEE       CLEAR     72  54  53 SW6       29.86S
OSCODA         MOCLDY    71  64  78 CALM      29.81S
PELLSTON       CLEAR     70  55  59 W3        29.81F
ROGERS CITY    CLEAR     70  53  54 W3        29.82S
TRAVERSE CITY  PTCLDY    75  52  44 SW5       29.82S
$$
MIZ007>008-015-020200-
EASTERN UPPER MICHIGAN

CITY           SKY/WX    TMP DP  RH WIND       PRES   REMARKS
KINROSS        MOCLDY    66  61  82 CALM      29.79F
MACKINAC ISLAN   N/A     69  59  71 SW9       29.80S
NEWBERRY       PTCLDY    68  58  72 SW5       29.79S
S. S. MARIE    MOCLDY    68  54  60 SW5       29.79S
MUNISING         N/A     71  55  56 CALM      29.77F
$$
MIZ004>006-011>014-085-020200-
CENTRAL UPPER MICHIGAN

CITY           SKY/WX    TMP DP  RH WIND       PRES   REMARKS
MANISTIQUE     PTCLDY    66  59  77 SW5       29.78S
ESCANABA       MOCLDY    73  48  40 W5        29.78S
MENOMINEE      CLEAR     75  52  43 CALM      29.81R
SAWYER-GWINN   CLEAR     73  45  35 W7        29.80S
$$
MIZ001>003-009>011-084-020200-
WESTERN UPPER MICHIGAN

CITY           SKY/WX    TMP DP  RH WIND       PRES   REMARKS
IRON MOUNTAIN  CLEAR     74  54  49 CALM      29.80F
HOUGHTON       MOCLDY    71  49  45 W8        29.75F
COPPER HARBOR    N/A     73  49  42 W10G17    29.71F
IRONWOOD       CLEAR     73  55  53 SW9       29.76F
$$

ABBREVIATIONS USED IN REMARKS
   TC - TEMPERATURE IN CELSIUS
  WCI - WIND CHILL INDEX
   HX - HEAT INDEX
  VSB - VISIBILITY



USA.gov is the U.S. government's official web portal to all federal, state and local government web resources and services.